Hinckley, MN

4:21 AM CST on December 16, 2019 (GMT -0600)
Hinckley

Weather History for K04W - October, 2019

Change the Weather History Date:

Saturday, October 12, 2019

  Actual Average (WUND) Record (WUND)
Temperature  
Mean Temperature 34 °F -  
Max Temperature 35 °F - - (-1)
Min Temperature 32 °F - - (-1)
Degree Days  
Heating Degree Days 32    
Moisture  
Dew Point 33 °F    
Average Humidity 95    
Maximum Humidity 100    
Minimum Humidity 87    
Precipitation  
Precipitation 0.02 in - - ()
Sea Level Pressure  
Sea Level Pressure 29.52 in    
Wind  
Wind Speed 15 mph (SW)    
Max Wind Speed 21 mph    
Max Gust Speed 29 mph    
Visibility 7 miles    
Events Rain , Snow    
Averages and records for this station are not official NWS values.
T = Trace of Precipitation, MM = Missing Value Source: NWS Daily Summary

Daily Weather History Graph

Daily Weather History Graph

Search for Another Location

Airport or City:

Astronomy

Oct. 12, 2019 Rise Set
Actual Time 7:24 AM CDT 6:31 PM CDT
Civil Twilight 6:54 AM CDT 7:01 PM CDT
Nautical Twilight 6:19 AM CDT 7:35 PM CDT
Astronomical Twilight 5:44 AM CDT 8:10 PM CDT
Moon 6:33 PM CDT (10/12) 5:53 AM CDT (10/12)
Length of Visible Light 12h 07m
Length of Day
11h 07m
Waxing Gibbous, 99% of the Moon is Illuminated
Oct 12
Waxing Gibbous
Oct 13
Full
Oct 21
Last Quarter
Oct 27
New
Nov 4
First Quarter

Hourly Weather History & Observations

Time (CDT) Temp. Windchill Dew Point Humidity Pressure Visibility Wind Dir Wind Speed Gust Speed Precip Events Conditions
12:15 AM 33.8 °F 22.8 °F 32.0 °F 93% 29.59 in 10.0 mi SSW 18.4 mph 26.5 mph N/A   Overcast
12:35 AM 33.8 °F 24.3 °F 32.0 °F 93% 29.57 in 10.0 mi SSW 13.8 mph 27.6 mph N/A   Overcast
12:40 AM 33.8 °F 22.2 °F 32.0 °F 93% 29.57 in 10.0 mi SSW 20.7 mph 26.5 mph N/A Snow Light Snow
12:57 AM 33.8 °F 22.5 °F 32.0 °F 93% 29.57 in 7.0 mi SSW 19.6 mph 25.3 mph N/A Snow Light Snow
1:16 AM 33.8 °F 23.5 °F 32.0 °F 93% 29.56 in 10.0 mi SSW 16.1 mph 25.3 mph N/A Snow Light Snow
1:35 AM 33.8 °F 22.5 °F 32.0 °F 93% 29.56 in 10.0 mi SSW 19.6 mph 23.0 mph N/A   Overcast
1:36 AM 33.8 °F 22.2 °F 32.0 °F 93% 29.56 in 10.0 mi SSW 20.7 mph 25.3 mph N/A   Overcast
1:55 AM 33.8 °F 23.2 °F 32.0 °F 93% 29.56 in 10.0 mi SSW 17.3 mph 24.2 mph N/A   Overcast
2:18 AM 33.8 °F 22.8 °F 32.0 °F 93% 29.55 in 7.0 mi SSW 18.4 mph 27.6 mph N/A Snow Light Snow
2:37 AM 33.8 °F 22.8 °F 32.0 °F 93% 29.55 in 10.0 mi SSW 18.4 mph 24.2 mph N/A Snow Light Snow
2:56 AM 33.8 °F 23.2 °F 32.0 °F 93% 29.54 in 7.0 mi SSW 17.3 mph 25.3 mph N/A Snow Light Snow
3:15 AM 33.8 °F 23.5 °F 32.0 °F 93% 29.54 in 10.0 mi SW 16.1 mph 23.0 mph N/A   Overcast
3:16 AM 33.8 °F 23.2 °F 32.0 °F 93% 29.54 in 10.0 mi SSW 17.3 mph 24.2 mph N/A   Overcast
3:39 AM 33.8 °F 22.8 °F 32.0 °F 93% 29.54 in 10.0 mi SSW 18.4 mph 26.5 mph N/A   Overcast
3:56 AM 33.8 °F 23.5 °F 32.0 °F 93% 29.53 in 10.0 mi SSW 16.1 mph 26.5 mph N/A Snow Light Snow
4:15 AM 33.8 °F 22.2 °F 32.0 °F 93% 29.53 in 7.0 mi SSW 20.7 mph 27.6 mph N/A Snow Light Snow
4:16 AM 33.8 °F 22.2 °F 32.0 °F 93% 29.53 in 7.0 mi SSW 20.7 mph 27.6 mph N/A Snow Light Snow
4:35 AM 33.8 °F 22.2 °F 32.0 °F 93% 29.52 in 10.0 mi SSW 20.7 mph 28.8 mph N/A Snow Light Snow
4:36 AM 33.8 °F 23.2 °F 32.0 °F 93% 29.52 in 10.0 mi SSW 17.3 mph 28.8 mph N/A Snow Light Snow
4:55 AM 33.8 °F 22.5 °F 32.0 °F 93% 29.52 in 10.0 mi SSW 19.6 mph 25.3 mph N/A Snow Light Snow
5:17 AM 33.8 °F 23.2 °F 32.0 °F 93% 29.52 in 7.0 mi SSW 17.3 mph 27.6 mph N/A Snow Light Snow
5:35 AM 33.8 °F 23.9 °F 32.0 °F 93% 29.52 in 5.0 mi SSW 15.0 mph 23.0 mph N/A Snow Light Snow
5:55 AM 32.0 °F 21.6 °F 32.0 °F 100% 29.52 in 5.0 mi SSW 15.0 mph 24.2 mph N/A Snow Light Snow
5:56 AM 32.0 °F 21.6 °F 32.0 °F 100% 29.52 in 5.0 mi SSW 15.0 mph 24.2 mph N/A Snow Light Snow
6:15 AM 33.8 °F 22.8 °F 32.0 °F 93% 29.51 in 10.0 mi SSW 18.4 mph 26.5 mph N/A Snow Light Snow
6:16 AM 33.8 °F 22.8 °F 32.0 °F 93% 29.52 in 10.0 mi SSW 18.4 mph 26.5 mph N/A Snow Light Snow
6:39 AM 33.8 °F 22.8 °F 32.0 °F 93% 29.52 in 10.0 mi SSW 18.4 mph 26.5 mph N/A Snow Light Snow
6:56 AM 33.8 °F 23.2 °F 32.0 °F 93% 29.51 in 7.0 mi SSW 17.3 mph 27.6 mph N/A Snow Light Snow
7:15 AM 33.8 °F 22.8 °F 32.0 °F 93% 29.50 in 10.0 mi SSW 18.4 mph 24.2 mph N/A   Overcast
7:35 AM 33.8 °F 23.5 °F 30.2 °F 87% 29.50 in 10.0 mi SSW 16.1 mph 27.6 mph N/A   Overcast
7:36 AM 33.8 °F 23.2 °F 30.2 °F 87% 29.50 in 10.0 mi SSW 17.3 mph 24.2 mph N/A   Overcast
7:55 AM 33.8 °F 22.8 °F 30.2 °F 87% 29.50 in 10.0 mi SSW 18.4 mph 24.2 mph N/A   Overcast
8:18 AM 33.8 °F 22.8 °F 32.0 °F 93% 29.49 in 3.0 mi SSW 18.4 mph 26.5 mph N/A Snow Light Snow
8:36 AM 33.8 °F 23.2 °F 32.0 °F 93% 29.49 in 2.5 mi SSW 17.3 mph 26.5 mph N/A Snow Light Snow
8:55 AM 32.0 °F 21.6 °F 32.0 °F 100% 29.49 in 2.0 mi SSW 15.0 mph 21.9 mph N/A Snow Light Snow
8:56 AM 32.0 °F 21.6 °F 32.0 °F 100% 29.49 in 2.0 mi SSW 15.0 mph 21.9 mph N/A Snow Light Snow
9:15 AM 32.0 °F 22.1 °F 32.0 °F 100% 29.49 in 2.0 mi South 13.8 mph 23.0 mph N/A Snow Light Snow
9:38 AM 32.0 °F 21.6 °F 32.0 °F 100% 29.49 in 1.8 mi South 15.0 mph 21.9 mph N/A Snow Light Snow
9:56 AM 32.0 °F 23.0 °F 32.0 °F 100% 29.48 in 2.0 mi SSW 11.5 mph 18.4 mph N/A Snow Light Snow
10:16 AM 33.8 °F 24.8 °F 32.0 °F 93% 29.48 in 2.0 mi SSW 12.7 mph 23.0 mph N/A Snow Light Snow
10:35 AM 33.8 °F 23.2 °F 32.0 °F 93% 29.48 in 4.0 mi SSW 17.3 mph - N/A Snow Light Snow
10:36 AM 33.8 °F 23.5 °F 32.0 °F 93% 29.48 in 4.0 mi SSW 16.1 mph - N/A Snow Light Snow
10:55 AM 33.8 °F 23.2 °F 32.0 °F 93% 29.48 in 7.0 mi SSW 17.3 mph 21.9 mph N/A Snow Light Snow
11:17 AM 33.8 °F 25.8 °F 32.0 °F 93% 29.48 in 3.0 mi SSW 10.4 mph 19.6 mph N/A Snow Light Snow
11:35 AM 33.8 °F 25.3 °F 32.0 °F 93% 29.48 in 2.5 mi SSW 11.5 mph 23.0 mph N/A Snow Light Snow
11:55 AM 35.6 °F 26.6 °F 33.8 °F 93% 29.48 in 5.0 mi SSW 13.8 mph 24.2 mph N/A Snow Light Snow
11:56 AM 33.8 °F 24.3 °F 33.8 °F 100% 29.48 in 4.0 mi SSW 13.8 mph 24.2 mph N/A Snow Light Snow
12:15 PM 33.8 °F 23.5 °F 33.8 °F 100% 29.48 in 2.5 mi SSW 16.1 mph 23.0 mph N/A Snow Light Snow
12:16 PM 33.8 °F 23.5 °F 33.8 °F 100% 29.48 in 2.5 mi SSW 16.1 mph 23.0 mph N/A Snow Light Snow
12:38 PM 33.8 °F 23.2 °F 33.8 °F 100% 29.48 in 2.5 mi SSW 17.3 mph 21.9 mph N/A Snow Light Snow
12:56 PM 35.6 °F 25.9 °F 33.8 °F 93% 29.48 in 5.0 mi SSW 16.1 mph 21.9 mph N/A Snow Light Snow
1:16 PM 35.6 °F 27.1 °F 33.8 °F 93% 29.47 in 5.0 mi SSW 12.7 mph - N/A Snow Light Snow
1:35 PM 35.6 °F 27.1 °F 33.8 °F 93% 29.47 in 10.0 mi SSW 12.7 mph 19.6 mph N/A Rain Light Rain
1:36 PM 35.6 °F 27.1 °F 33.8 °F 93% 29.47 in 10.0 mi SSW 12.7 mph - N/A Rain Light Rain
1:55 PM 35.6 °F 27.1 °F 33.8 °F 93% 29.47 in 10.0 mi SSW 12.7 mph 17.3 mph N/A   Light Drizzle
2:17 PM 35.6 °F 27.5 °F 33.8 °F 93% 29.46 in 10.0 mi SSW 11.5 mph 19.6 mph N/A Rain Light Rain
2:36 PM 35.6 °F 26.6 °F 33.8 °F 93% 29.47 in 3.0 mi SSW 13.8 mph - N/A Snow Light Snow
2:55 PM 35.6 °F 27.5 °F 33.8 °F 93% 29.47 in 5.0 mi SSW 11.5 mph 23.0 mph N/A   Overcast
2:56 PM 35.6 °F 27.1 °F 33.8 °F 93% 29.47 in 5.0 mi SSW 12.7 mph 23.0 mph N/A   Overcast
3:15 PM 35.6 °F 25.5 °F 33.8 °F 93% 29.48 in 7.0 mi SW 17.3 mph 20.7 mph N/A Rain Light Rain
3:16 PM 35.6 °F 25.9 °F 33.8 °F 93% 29.48 in 5.0 mi SW 16.1 mph 20.7 mph N/A Rain Light Rain
3:38 PM 35.6 °F 27.5 °F 33.8 °F 93% 29.48 in 4.0 mi SSW 11.5 mph - N/A Rain Light Rain
3:56 PM 33.8 °F 24.8 °F 33.8 °F 100% 29.48 in 3.0 mi SW 12.7 mph 19.6 mph N/A Rain Light Rain
4:16 PM 33.8 °F 25.3 °F 33.8 °F 100% 29.49 in 1.8 mi SW 11.5 mph 16.1 mph N/A Snow Light Snow
4:35 PM 33.8 °F 27.0 °F 33.8 °F 100% 29.49 in 1.8 mi SW 8.1 mph - 0.01 in Snow Light Snow
4:36 PM 33.8 °F 27.0 °F 33.8 °F 100% 29.49 in 2.0 mi SSW 8.1 mph - 0.01 in Snow Light Snow
4:55 PM 33.8 °F 25.8 °F 33.8 °F 100% 29.49 in 2.5 mi SW 10.4 mph - 0.01 in Snow Light Snow
4:59 PM 33.8 °F 27.0 °F 33.8 °F 100% 29.49 in 1.0 mi SSW 8.1 mph - 0.01 in Snow Light Snow
5:17 PM 32.0 °F 24.8 °F 32.0 °F 100% 29.50 in 1.2 mi SSW 8.1 mph - 0.01 in Snow Light Snow
5:36 PM 33.8 °F 27.0 °F 33.8 °F 100% 29.50 in 4.0 mi SW 8.1 mph - 0.01 in Snow Light Snow
5:55 PM 33.8 °F 27.0 °F 33.8 °F 100% 29.51 in 3.0 mi SW 8.1 mph - 0.01 in Snow Light Snow
5:56 PM 33.8 °F 27.0 °F 33.8 °F 100% 29.51 in 3.0 mi SW 8.1 mph - 0.01 in Snow Light Snow
6:15 PM 33.8 °F 26.4 °F 33.8 °F 100% 29.51 in 7.0 mi SW 9.2 mph - N/A Snow Light Snow
6:38 PM 33.8 °F 25.3 °F 33.8 °F 100% 29.52 in 10.0 mi SW 11.5 mph - N/A   Overcast
6:56 PM 33.8 °F 25.8 °F 33.8 °F 100% 29.52 in 10.0 mi SW 10.4 mph - N/A Snow Light Snow
7:16 PM 33.8 °F 25.8 °F 33.8 °F 100% 29.53 in 10.0 mi SW 10.4 mph - N/A   Overcast
7:35 PM 33.8 °F 25.8 °F 33.8 °F 100% 29.54 in 10.0 mi SW 10.4 mph - N/A   Overcast
7:36 PM 33.8 °F 26.4 °F 33.8 °F 100% 29.54 in 10.0 mi SW 9.2 mph - N/A   Overcast
7:55 PM 33.8 °F 27.7 °F 33.8 °F 100% 29.54 in 7.0 mi WSW 6.9 mph - N/A Snow Light Snow
7:59 PM 33.8 °F 27.7 °F 33.8 °F 100% 29.54 in 7.0 mi WSW 6.9 mph - N/A Snow Light Snow
8:16 PM 33.8 °F 27.7 °F 33.8 °F 100% 29.55 in 10.0 mi WSW 6.9 mph - N/A   Overcast
8:36 PM 33.8 °F 27.0 °F 33.8 °F 100% 29.55 in 10.0 mi WSW 8.1 mph - N/A   Overcast
8:55 PM 33.8 °F 25.8 °F 32.0 °F 93% 29.56 in 10.0 mi WSW 10.4 mph - N/A   Overcast
9:15 PM 33.8 °F 26.4 °F 33.8 °F 100% 29.56 in 10.0 mi WSW 9.2 mph - N/A   Overcast
9:19 PM 33.8 °F 26.4 °F 33.8 °F 100% 29.56 in 10.0 mi WSW 9.2 mph - N/A   Overcast
9:37 PM 33.8 °F 27.0 °F 32.0 °F 93% 29.56 in 10.0 mi WSW 8.1 mph - N/A   Overcast
9:55 PM 33.8 °F 25.8 °F 32.0 °F 93% 29.57 in 10.0 mi WSW 10.4 mph - N/A   Overcast
10:15 PM 33.8 °F 24.8 °F 32.0 °F 93% 29.57 in 10.0 mi WSW 12.7 mph - N/A   Mostly Cloudy
10:16 PM 33.8 °F 24.8 °F 32.0 °F 93% 29.57 in 10.0 mi WSW 12.7 mph - N/A   Mostly Cloudy
10:35 PM 33.8 °F 25.8 °F 32.0 °F 93% 29.57 in 10.0 mi WSW 10.4 mph - N/A   Mostly Cloudy
10:36 PM 33.8 °F 26.4 °F 32.0 °F 93% 29.57 in 10.0 mi WSW 9.2 mph - N/A   Mostly Cloudy
10:58 PM 33.8 °F 27.0 °F 32.0 °F 93% 29.57 in 10.0 mi WSW 8.1 mph - N/A   Overcast
11:35 PM 33.8 °F 28.6 °F 32.0 °F 93% 29.56 in 10.0 mi WSW 5.8 mph - N/A   Overcast
11:36 PM 33.8 °F 28.6 °F 32.0 °F 93% 29.56 in 10.0 mi WSW 5.8 mph - N/A   Overcast
11:55 PM 32.0 °F 25.6 °F 32.0 °F 100% 29.56 in 10.0 mi SW 6.9 mph - N/A   Overcast